Location: Ladrillo (historical)
(32.8195°N, 117.2231°W)
Time: 18:04:50
(UTC+00:00)

NOAA 18 - Pass Details

Date: 23 April 2021
Orbit: 840 x 861 km, 99.0° (Epoch: 05 May)

Event Time Altitude Azimuth Distance (km) Brightness Sun altitude
Exits shadow 04:56:12 54° 28° (NNE) 1,013 5.5 -28.9°
Drops below altitude 10° 05:00:39 10° 354° (N) 2,462 8.2 -29.6°
Sets 05:03:02 0° 351° (N) 3,399 9.0 -30.0°
